Wind_Speed
6 7 3 1 3 3 3 3 2 3 5 3 3 3 5 6 6 6 9 10 9 11 13 15 15 16 15 14 13 11 10 9 8 7 6 6 6 6 6 7 7 8 9
7 7 6 4 4 5 5 4 3 1 4 2 3 1 2 5 6 6 7 8 10 12 14 13 12 13 12 11 10 8 9 8 7 7 5 6 5 6 7 7 8 9 9
7 7 7 6 5 5 5 5 5 3 1 3 4 5 2 1 4 6 7 6 7 9 10 10 10 9 8 7 5 7 8 7 4 5 5 5 6 7 7 8 9 9 9
6 5 5 6 5 6 6 6 7 5 3 3 3 6 6 4 1 2 5 6 7 8 9 8 7 5 5 4 2 8 6 6 8 7 7 9 10 9 10 11 11 11 11
7 6 5 6 6 7 7 6 7 7 4 4 4 7 8 9 6 3 3 4 5 5 5 5 3 1 0 2 4 5 5 6 9 12 11 11 13 14 14 15 16 16 16
9 7 7 7 6 6 7 5 6 6 6 6 6 8 8 10 10 8 6 6 5 6 5 4 3 4 5 7 7 6 8 8 9 14 15 13 13 14 15 17 17 17 18
13 10 8 8 5 2 4 6 6 5 7 7 8 9 10 11 12 12 11 11 10 9 8 8 8 9 10 11 11 10 9 9 10 11 12 14 15 16 16 18 19 21 22
15 13 11 10 7 5 5 7 6 7 7 7 10 11 12 13 13 14 14 14 13 12 11 12 11 9 10 9 10 10 10 12 13 14 16 16 17 19 19 20 21 22 23
20 16 13 12 11 9 11 10 10 8 9 9 11 13 14 14 14 14 13 13 13 12 10 10 9 6 8 9 11 13 14 14 16 18 18 18 20 21 21 22 24 26 28
23 21 19 16 15 15 14 12 13 13 13 13 13 14 14 14 14 12 12 11 9 8 8 8 7 7 10 13 14 16 17 18 19 18 18 20 22 25 26 26 27 30 30
25 24 23 20 18 17 14 14 15 15 17 16 16 15 15 15 15 13 10 10 11 10 9 9 9 10 12 14 17 19 20 21 21 23 23 23 24 24 27 30 31 31 30
24 25 27 26 23 19 17 17 19 18 18 19 17 16 16 16 15 12 11 12 12 10 10 11 12 12 14 16 19 20 22 23 24 24 26 27 28 28 30 32 34 33 34
31 27 25 24 25 24 23 23 22 19 20 20 19 19 19 18 15 13 14 15 14 13 14 13 14 15 17 19 21 23 26 28 28 28 30 31 32 33 32 32 33 34 36
30 32 28 25 25 25 24 23 23 22 22 22 23 22 23 20 17 17 18 18 17 17 17 15 17 20 22 22 24 26 29 31 32 31 32 33 33 33 33 35 35 36 38
30 28 29 28 27 27 25 24 22 23 23 25 26 27 26 21 21 21 21 21 21 22 19 19 20 22 28 27 28 30 31 32 34 32 31 32 32 35 36 35 37 37 38
28 28 29 28 28 24 21 23 24 26 28 27 28 30 28 26 25 23 23 26 26 25 24 24 26 26 31 32 32 34 33 34 34 33 33 34 35 35 35 36 37 37 37
29 26 27 27 27 26 28 27 27 30 30 31 31 31 31 31 29 26 27 28 29 29 30 30 32 32 35 37 37 37 37 38 37 36 37 37 37 36 37 37 37 38 39
27 25 24 26 26 29 28 29 32 30 33 34 34 34 35 34 33 31 31 30 31 32 34 34 35 36 39 42 42 42 42 41 38 38 38 36 37 37 35 36 36 37 38
28 25 23 25 27 28 27 23 23 25 27 34 37 36 39 37 37 37 34 32 33 34 36 37 39 40 44 45 46 46 49 48 42 39 37 34 35 34 33 33 34 35 36
27 24 23 24 25 25 29 27 22 22 27 32 37 47 40 40 40 40 38 33 35 35 38 39 41 45 49 51 54 54 52 47 37 36 34 32 33 34 34 34 34 34 35
22 22 17 20 21 21 26 26 20 19 24 25 38 39 44 46 47 49 47 43 41 41 44 46 48 52 55 55 56 44 35 30 33 33 30 30 32 31 31 31 34 33 34
16 19 18 19 21 21 18 13 10 10 14 13 19 35 40 39 44 40 50 48 48 47 45 47 44 40 52 54 40 35 35 30 28 27 29 32 31 31 33 34 32 32 34
13 16 16 17 16 13 13 7 6 7 9 13 15 18 19 21 22 27 26 33 44 53 45 40 31 27 27 25 31 33 23 22 28 28 28 27 28 29 31 31 32 33 35
13 14 12 12 10 7 6 7 7 9 9 10 10 11 13 18 20 21 22 25 26 21 25 28 27 27 25 27 24 20 19 22 25 26 26 26 26 25 26 28 30 33 36
15 15 13 11 10 7 10 8 9 11 12 12 12 9 10 12 13 15 19 22 19 19 24 27 27 27 24 19 16 19 22 24 25 23 25 23 24 26 28 30 33 35 39
15 17 17 17 14 12 14 14 14 14 15 16 17 17 16 17 19 19 19 20 20 19 18 20 21 20 16 17 18 20 22 21 22 23 23 23 25 27 30 31 35 38 41
Wind_Direction
275 290 293 216 203 179 178 216 210 341 320 320 316 28 41 50 63 78 98 102 103 109 116 122 120 115 114 115 112 112 111 103 93 81 64 63 49 40 36 17 11 8 7
275 266 260 240 213 200 198 215 230 155 314 282 241 253 60 60 70 82 91 106 120 127 129 131 127 121 117 111 107 103 88 79 71 66 67 49 50 39 24 15 10 8 3
262 243 239 233 220 211 212 215 226 202 238 284 239 233 228 86 83 88 97 102 108 119 122 120 113 105 102 100 105 89 66 52 47 35 14 18 9 6 359 351 349 347 344
255 236 242 236 231 224 220 224 234 217 207 268 280 256 242 245 228 109 115 117 110 112 117 121 118 113 120 129 92 62 44 4 355 343 338 343 335 334 332 322 321 319 317
251 241 249 246 237 246 242 234 240 245 233 251 273 273 254 246 245 222 179 150 137 133 134 140 152 175 322 0 3 30 7 339 328 311 316 322 318 319 312 309 311 310 308
248 241 245 256 252 265 287 263 268 262 260 258 255 261 257 249 243 235 226 214 204 193 190 206 232 270 294 299 311 318 307 307 302 304 320 321 317 318 319 321 322 318 313
234 241 241 248 250 268 333 310 285 272 271 269 260 255 259 253 242 237 235 235 228 230 234 239 253 269 287 300 307 313 314 318 319 318 319 319 315 314 315 316 317 316 311
237 236 244 250 251 246 285 312 299 279 275 272 273 265 257 254 245 238 235 236 241 243 247 257 267 284 292 303 309 316 318 316 314 312 312 312 312 312 316 319 316 308 304
241 241 243 250 251 247 258 291 295 298 290 274 263 260 256 254 250 245 242 244 245 248 252 261 271 285 301 306 308 310 311 312 312 314 312 314 317 317 320 319 316 313 311
242 241 245 245 250 254 268 275 292 289 275 259 253 255 253 249 246 243 245 244 245 248 250 259 284 300 297 300 304 306 314 312 310 307 304 305 309 314 317 313 312 312 314
254 249 245 249 251 257 266 277 278 276 267 263 258 249 247 239 237 233 235 245 248 251 260 273 283 293 298 303 307 312 313 311 308 305 301 298 301 305 307 309 310 309 310
259 260 257 257 259 261 267 270 266 272 264 261 252 249 243 241 233 231 248 256 256 260 272 282 292 302 302 308 310 314 315 313 308 306 300 298 298 303 303 304 305 304 305
256 261 260 256 256 258 263 264 265 265 263 257 252 247 240 232 238 249 252 248 255 271 276 283 295 296 301 304 306 309 308 308 310 310 309 307 306 306 307 303 302 302 303
249 251 255 260 260 259 260 264 272 263 262 256 252 244 238 237 243 249 246 249 258 264 270 283 285 291 298 302 305 308 309 308 306 303 302 304 305 305 303 304 302 302 301
245 248 251 257 261 265 267 267 263 255 259 258 251 246 238 237 246 248 249 254 259 263 271 280 284 294 295 300 303 306 304 305 304 300 298 301 303 304 304 303 304 304 303
241 247 252 257 260 260 260 260 256 254 254 258 251 249 245 244 244 251 255 256 260 266 273 278 284 291 294 295 296 298 302 305 304 307 304 305 303 301 299 300 301 300 300
241 243 250 256 263 261 256 254 255 259 258 258 254 244 244 249 252 256 259 260 264 267 271 277 283 287 291 293 294 299 301 302 305 303 304 305 303 301 301 301 303 303 303
242 242 245 247 252 256 260 263 263 260 262 258 252 246 247 249 254 258 262 266 267 269 272 275 281 286 288 289 291 295 297 302 305 304 302 302 300 299 301 302 302 303 302
244 244 245 250 251 253 259 264 269 266 264 253 247 242 243 249 251 255 259 265 267 270 272 276 281 284 287 291 292 295 295 303 300 300 296 294 294 297 300 302 304 304 305
245 248 252 258 263 269 265 273 271 280 271 260 248 244 239 247 245 250 255 260 264 266 271 275 279 282 283 283 287 295 296 298 296 294 294 297 301 304 305 307 306 305 305
246 249 257 271 279 288 285 279 277 266 280 281 260 265 246 252 250 254 251 256 260 265 272 275 282 283 282 282 286 296 297 297 291 292 298 303 304 304 303 302 303 307 310
254 256 257 267 277 288 295 285 234 300 307 306 302 266 261 266 260 269 262 261 264 271 274 279 287 293 287 285 299 289 295 284 289 294 301 304 305 308 310 308 311 317 320
257 250 258 266 275 283 286 287 292 293 299 294 300 289 271 265 274 266 273 275 274 274 275 277 279 280 282 288 295 292 293 295 296 303 303 306 309 307 306 313 319 323 324
244 247 256 261 266 262 260 259 244 240 239 242 249 265 260 264 269 270 279 267 271 273 273 281 288 284 284 291 299 287 297 297 299 302 304 303 305 307 315 319 323 324 324
238 246 254 251 248 255 272 273 263 263 256 242 246 270 274 275 270 273 278 272 278 286 283 281 283 294 290 285 290 300 302 301 297 301 301 305 311 321 322 325 326 323 322
239 244 247 248 256 261 270 271 269 267 258 259 261 266 275 279 276 273 275 279 281 286 290 294 295 299 291 292 299 297 297 302 307 308 311 319 322 323 324 325 324 324 323
Height
5866 5866 5866 5866 5866 5866 5867 5868 5867 5868 5867 5867 5867 5866 5865 5864 5863 5862 5862 5861 5861 5861 5861 5862 5861 5861 5861 5860 5860 5860 5859 5859 5859 5859 5859 5858 5857 5856 5855 5854 5853 5852 5851
5864 5866 5866 5866 5866 5866 5866 5867 5868 5867 5868 5867 5868 5868 5867 5866 5865 5864 5863 5862 5862 5862 5862 5862 5862 5862 5863 5862 5862 5861 5862 5862 5861 5861 5860 5859 5858 5856 5855 5855 5854 5853 5851
5864 5864 5865 5865 5866 5866 5866 5867 5868 5868 5868 5869 5868 5869 5869 5868 5867 5866 5865 5865 5864 5864 5864 5864 5864 5864 5864 5863 5862 5863 5865 5864 5863 5862 5861 5860 5858 5857 5856 5855 5854 5852 5851
5864 5863 5864 5865 5865 5866 5865 5866 5867 5868 5868 5869 5869 5870 5870 5869 5868 5867 5867 5866 5865 5866 5865 5865 5864 5864 5863 5863 5863 5868 5866 5864 5863 5862 5860 5859 5858 5857 5855 5854 5852 5851 5850
5862 5862 5863 5864 5864 5866 5866 5866 5867 5868 5868 5869 5869 5870 5870 5870 5869 5869 5868 5868 5867 5866 5866 5865 5865 5864 5864 5864 5864 5866 5865 5863 5860 5857 5857 5857 5856 5854 5853 5852 5850 5849 5847
5862 5861 5862 5863 5865 5866 5867 5867 5867 5867 5868 5868 5868 5869 5869 5870 5869 5869 5869 5868 5868 5866 5866 5866 5865 5864 5864 5863 5864 5865 5863 5861 5860 5857 5857 5855 5854 5853 5852 5850 5849 5847 5845
5861 5861 5861 5863 5864 5865 5866 5866 5866 5866 5867 5867 5867 5868 5869 5869 5869 5869 5868 5868 5867 5867 5867 5866 5865 5864 5865 5864 5863 5863 5861 5860 5858 5857 5856 5854 5852 5851 5849 5848 5847 5845 5842
5858 5859 5861 5862 5863 5864 5865 5865 5865 5865 5866 5866 5867 5867 5867 5868 5868 5868 5868 5867 5867 5867 5867 5866 5865 5866 5864 5864 5862 5861 5861 5859 5857 5855 5853 5852 5850 5848 5847 5846 5844 5841 5838
5855 5856 5858 5860 5861 5863 5864 5864 5864 5864 5865 5865 5865 5865 5866 5867 5867 5867 5867 5867 5866 5866 5865 5865 5865 5864 5863 5862 5860 5859 5858 5857 5855 5853 5851 5849 5847 5846 5844 5842 5839 5837 5835
5851 5853 5855 5856 5859 5861 5862 5863 5864 5863 5863 5862 5862 5863 5864 5865 5865 5866 5866 5866 5865 5865 5865 5863 5864 5863 5861 5859 5858 5856 5855 5854 5852 5851 5849 5847 5844 5842 5840 5836 5834 5832 5830
5849 5850 5852 5854 5856 5858 5860 5861 5861 5860 5860 5860 5861 5861 5863 5863 5864 5864 5865 5865 5865 5864 5863 5863 5862 5861 5859 5857 5856 5855 5853 5851 5851 5848 5846 5844 5842 5840 5836 5833 5830 5827 5825
5847 5849 5850 5852 5853 5856 5857 5858 5857 5857 5859 5859 5860 5860 5862 5862 5863 5863 5864 5864 5863 5863 5863 5862 5861 5859 5857 5855 5854 5852 5850 5849 5847 5845 5843 5840 5838 5836 5832 5829 5826 5822 5819
5844 5844 5847 5849 5851 5852 5853 5853 5854 5855 5856 5857 5857 5858 5859 5860 5862 5862 5861 5860 5861 5861 5861 5861 5859 5857 5855 5853 5851 5848 5847 5844 5842 5840 5837 5835 5832 5830 5827 5823 5820 5817 5813
5837 5840 5842 5844 5846 5847 5849 5850 5852 5853 5853 5854 5855 5855 5856 5858 5859 5859 5858 5858 5858 5858 5858 5859 5857 5854 5852 5851 5848 5846 5844 5841 5839 5836 5833 5830 5827 5824 5820 5816 5813 5809 5806
5833 5835 5836 5838 5841 5844 5845 5846 5848 5849 5849 5850 5851 5852 5854 5854 5854 5855 5855 5856 5855 5855 5857 5855 5853 5851 5847 5848 5845 5843 5840 5837 5833 5830 5827 5824 5821 5818 5814 5810 5807 5802 5799
5828 5829 5832 5833 5834 5836 5840 5842 5842 5842 5844 5845 5846 5848 5849 5850 5850 5853 5853 5851 5852 5852 5853 5852 5848 5847 5844 5842 5841 5838 5835 5832 5828 5826 5822 5818 5815 5811 5807 5804 5799 5795 5791
5822 5824 5827 5829 5831 5831 5833 5836 5838 5839 5839 5840 5842 5843 5844 5845 5847 5847 5847 5847 5848 5848 5847 5847 5844 5842 5839 5838 5836 5833 5830 5827 5824 5819 5816 5812 5809 5805 5801 5796 5791 5788 5785
5818 5819 5820 5822 5824 5826 5828 5830 5832 5833 5834 5836 5837 5838 5839 5840 5841 5841 5841 5842 5843 5843 5842 5840 5838 5837 5833 5831 5829 5827 5823 5821 5818 5814 5809 5806 5802 5798 5794 5790 5785 5781 5777
5815 5815 5817 5818 5819 5821 5823 5824 5826 5827 5827 5828 5830 5831 5833 5834 5835 5835 5835 5835 5836 5836 5835 5833 5832 5831 5828 5826 5823 5820 5817 5814 5812 5806 5803 5800 5797 5794 5789 5784 5778 5774 5770
5811 5811 5813 5814 5816 5818 5818 5819 5819 5821 5821 5822 5824 5822 5825 5826 5826 5827 5827 5827 5828 5828 5827 5826 5825 5823 5822 5819 5817 5814 5810 5807 5803 5800 5797 5793 5789 5785 5782 5778 5773 5769 5765
5804 5807 5807 5809 5811 5813 5813 5814 5813 5814 5816 5815 5816 5816 5817 5818 5819 5819 5820 5819 5820 5821 5821 5820 5818 5816 5813 5811 5809 5806 5802 5799 5797 5795 5790 5788 5784 5781 5778 5773 5768 5763 5759
5798 5801 5802 5805 5807 5808 5809 5808 5807 5809 5811 5810 5810 5811 5811 5810 5812 5812 5813 5812 5811 5813 5812 5811 5810 5807 5805 5801 5801 5799 5796 5794 5791 5788 5784 5781 5778 5775 5771 5767 5763 5758 5753
5794 5798 5799 5801 5802 5803 5804 5803 5802 5803 5805 5807 5806 5808 5807 5806 5806 5805 5804 5805 5804 5804 5804 5804 5801 5799 5797 5794 5794 5793 5789 5787 5784 5782 5779 5777 5773 5770 5766 5761 5757 5751 5746
5791 5794 5795 5797 5799 5799 5800 5800 5801 5802 5802 5802 5803 5803 5801 5800 5801 5800 5799 5798 5797 5797 5797 5796 5794 5792 5790 5788 5788 5787 5785 5784 5781 5778 5776 5774 5770 5766 5761 5756 5751 5746 5741
5787 5789 5791 5794 5795 5796 5797 5797 5798 5798 5799 5799 5799 5798 5797 5796 5796 5796 5796 5795 5794 5793 5792 5790 5790 5788 5785 5785 5784 5783 5782 5779 5776 5773 5772 5769 5766 5760 5756 5751 5746 5741 5735
5782 5784 5787 5790 5789 5790 5792 5793 5793 5794 5795 5794 5794 5794 5793 5794 5793 5792 5791 5790 5790 5789 5788 5786 5785 5783 5783 5781 5780 5779 5776 5774 5771 5769 5766 5763 5761 5757 5751 5746 5741 5735 5729